QPF
0.02 0.02 0.02 0.02 0.02 0.03 0.04 0.04 0.05 0.05 0.05 0.06 0.08 0.08 0.08 0.10 0.11 0.12 0.13 0.14 0.17 0.14 0.12 0.11 0.10 0.10 0.12 0.15 0.15 0.16 0.17 0.21 0.20 0.18 0.19 0.15 0.11 0.09 0.09 0.09 0.10 0.10 0.12
0.01 0.01 0.01 0.01 0.02 0.02 0.03 0.04 0.04 0.06 0.05 0.04 0.06 0.07 0.08 0.08 0.08 0.09 0.12 0.14 0.13 0.13 0.11 0.11 0.09 0.10 0.13 0.15 0.15 0.15 0.15 0.16 0.17 0.16 0.17 0.17 0.15 0.12 0.10 0.11 0.12 0.11 0.11
0.01 0.01 0.01 0.01 0.02 0.02 0.02 0.03 0.03 0.03 0.04 0.05 0.05 0.06 0.07 0.07 0.07 0.07 0.07 0.07 0.07 0.08 0.09 0.09 0.09 0.08 0.11 0.13 0.15 0.14 0.17 0.19 0.20 0.18 0.19 0.19 0.18 0.14 0.13 0.15 0.16 0.15 0.11
0.01 0.01 0.01 0.01 0.01 0.02 0.02 0.02 0.03 0.02 0.02 0.03 0.04 0.05 0.07 0.07 0.07 0.06 0.07 0.07 0.08 0.09 0.10 0.10 0.10 0.10 0.12 0.12 0.14 0.14 0.18 0.22 0.22 0.22 0.19 0.18 0.17 0.16 0.15 0.16 0.18 0.15 0.13
0.02 0.02 0.01 0.01 0.01 0.01 0.01 0.01 0.01 0.01 0.01 0.02 0.03 0.04 0.05 0.07 0.07 0.08 0.07 0.07 0.09 0.10 0.10 0.13 0.16 0.16 0.16 0.16 0.17 0.17 0.17 0.18 0.17 0.17 0.19 0.19 0.18 0.17 0.15 0.17 0.18 0.18 0.16
0.02 0.01 0.01 0.01 0.02 0.01 0.01 0.00 0.00 0.00 0.00 0.01 0.02 0.02 0.03 0.04 0.05 0.06 0.07 0.07 0.07 0.07 0.07 0.08 0.10 0.14 0.14 0.14 0.13 0.15 0.15 0.15 0.16 0.16 0.16 0.15 0.15 0.17 0.17 0.17 0.17 0.17 0.17
0.02 0.01 0.01 0.01 0.01 0.01 0.01 0.01 0.01 0.00 0.00 0.01 0.01 0.01 0.01 0.02 0.03 0.04 0.05 0.05 0.05 0.05 0.05 0.04 0.05 0.08 0.09 0.10 0.10 0.11 0.12 0.15 0.15 0.13 0.14 0.16 0.17 0.16 0.17 0.19 0.21 0.20 0.19
0.02 0.02 0.02 0.02 0.01 0.01 0.01 0.02 0.01 0.01 0.00 0.01 0.01 0.01 0.01 0.01 0.01 0.01 0.02 0.03 0.03 0.03 0.03 0.03 0.03 0.05 0.06 0.06 0.06 0.08 0.10 0.13 0.15 0.15 0.15 0.15 0.15 0.17 0.18 0.19 0.20 0.23 0.22
0.03 0.03 0.03 0.02 0.02 0.01 0.02 0.01 0.01 0.01 0.00 0.00 0.01 0.01 0.01 0.02 0.01 0.01 0.02 0.02 0.03 0.03 0.03 0.03 0.03 0.03 0.04 0.05 0.04 0.05 0.06 0.09 0.11 0.12 0.12 0.14 0.14 0.17 0.20 0.21 0.20 0.19 0.21
0.02 0.03 0.04 0.04 0.03 0.02 0.01 0.00 0.00 0.00 0.00 0.00 0.00 0.01 0.01 0.01 0.02 0.02 0.02 0.02 0.03 0.03 0.03 0.03 0.03 0.03 0.03 0.03 0.03 0.04 0.05 0.06 0.08 0.08 0.08 0.09 0.09 0.10 0.14 0.17 0.19 0.18 0.16
0.02 0.02 0.04 0.03 0.02 0.01 0.01 0.00 0.00 0.00 0.00 0.00 0.01 0.01 0.01 0.01 0.02 0.02 0.01 0.01 0.02 0.03 0.03 0.03 0.03 0.03 0.03 0.03 0.03 0.03 0.04 0.05 0.05 0.06 0.08 0.08 0.06 0.06 0.07 0.09 0.13 0.18 0.17
0.01 0.02 0.02 0.02 0.01 0.01 0.01 0.00 0.00 0.00 0.00 0.00 0.01 0.01 0.02 0.02 0.01 0.01 0.02 0.02 0.02 0.03 0.04 0.04 0.03 0.03 0.04 0.03 0.03 0.03 0.03 0.04 0.05 0.05 0.06 0.07 0.07 0.05 0.05 0.06 0.09 0.14 0.16
0.01 0.01 0.02 0.02 0.01 0.01 0.00 0.00 0.00 0.00 0.00 0.00 0.01 0.01 0.01 0.02 0.01 0.01 0.02 0.03 0.03 0.04 0.05 0.05 0.04 0.03 0.05 0.04 0.03 0.02 0.03 0.03 0.03 0.04 0.04 0.05 0.07 0.07 0.06 0.05 0.06 0.08 0.10
0.01 0.02 0.02 0.03 0.02 0.01 0.01 0.01 0.00 0.00 0.00 0.00 0.01 0.01 0.01 0.01 0.01 0.01 0.02 0.03 0.03 0.03 0.04 0.05 0.04 0.03 0.02 0.03 0.03 0.02 0.03 0.03 0.03 0.03 0.03 0.03 0.03 0.04 0.04 0.03 0.04 0.05 0.06
0.01 0.02 0.03 0.04 0.05 0.04 0.03 0.01 0.01 0.01 0.01 0.01 0.01 0.01 0.01 0.01 0.01 0.02 0.02 0.02 0.02 0.02 0.02 0.03 0.03 0.02 0.01 0.01 0.01 0.01 0.02 0.02 0.03 0.03 0.03 0.02 0.02 0.03 0.03 0.02 0.02 0.03 0.05
0.01 0.02 0.03 0.04 0.04 0.04 0.03 0.02 0.01 0.01 0.01 0.01 0.01 0.01 0.02 0.02 0.02 0.02 0.03 0.03 0.03 0.03 0.02 0.03 0.03 0.03 0.01 0.01 0.01 0.01 0.02 0.02 0.02 0.02 0.02 0.02 0.02 0.02 0.02 0.02 0.03 0.03 0.04
0.02 0.03 0.04 0.05 0.04 0.04 0.03 0.03 0.03 0.03 0.02 0.01 0.01 0.02 0.02 0.03 0.03 0.03 0.02 0.03 0.04 0.05 0.04 0.05 0.05 0.05 0.03 0.02 0.01 0.02 0.02 0.02 0.02 0.02 0.03 0.02 0.01 0.02 0.02 0.02 0.02 0.02 0.02
0.02 0.02 0.03 0.03 0.04 0.03 0.03 0.03 0.04 0.03 0.03 0.02 0.02 0.02 0.02 0.04 0.04 0.03 0.03 0.04 0.04 0.05 0.06 0.06 0.06 0.05 0.03 0.02 0.02 0.02 0.03 0.04 0.03 0.03 0.03 0.02 0.02 0.01 0.01 0.02 0.03 0.02 0.02
0.03 0.04 0.05 0.04 0.03 0.03 0.03 0.03 0.04 0.06 0.06 0.05 0.03 0.02 0.02 0.04 0.04 0.04 0.05 0.05 0.04 0.05 0.05 0.06 0.06 0.05 0.04 0.03 0.02 0.03 0.04 0.04 0.04 0.03 0.03 0.02 0.01 0.01 0.01 0.02 0.03 0.02 0.02
0.04 0.04 0.03 0.03 0.04 0.04 0.03 0.03 0.04 0.05 0.05 0.04 0.03 0.03 0.03 0.04 0.04 0.05 0.05 0.05 0.05 0.05 0.04 0.04 0.04 0.03 0.03 0.02 0.01 0.02 0.04 0.05 0.05 0.04 0.04 0.03 0.03 0.02 0.01 0.03 0.04 0.03 0.02
0.02 0.02 0.02 0.03 0.03 0.02 0.02 0.03 0.03 0.04 0.03 0.03 0.02 0.03 0.03 0.04 0.04 0.04 0.04 0.05 0.04 0.05 0.05 0.04 0.03 0.02 0.01 0.01 0.01 0.02 0.04 0.06 0.07 0.06 0.05 0.03 0.03 0.02 0.01 0.01 0.03 0.01 0.01
0.02 0.02 0.02 0.02 0.02 0.02 0.03 0.03 0.03 0.02 0.02 0.02 0.02 0.02 0.03 0.02 0.03 0.03 0.03 0.03 0.04 0.04 0.04 0.04 0.03 0.01 0.01 0.01 0.01 0.01 0.02 0.03 0.05 0.06 0.04 0.03 0.02 0.01 0.01 0.01 0.00 0.00 0.01
0.03 0.02 0.02 0.02 0.02 0.02 0.03 0.03 0.03 0.02 0.02 0.02 0.02 0.03 0.03 0.03 0.03 0.02 0.03 0.03 0.04 0.03 0.03 0.03 0.02 0.01 0.01 0.01 0.01 0.01 0.01 0.01 0.03 0.03 0.02 0.01 0.01 0.01 0.01 0.00 0.00 0.01 0.02
0.03 0.02 0.01 0.02 0.02 0.03 0.03 0.03 0.02 0.02 0.02 0.02 0.02 0.03 0.03 0.03 0.03 0.02 0.01 0.02 0.02 0.03 0.03 0.03 0.02 0.01 0.01 0.01 0.01 0.02 0.01 0.01 0.01 0.01 0.01 0.01 0.01 0.02 0.02 0.01 0.01 0.02 0.02
0.02 0.02 0.02 0.02 0.02 0.02 0.02 0.03 0.03 0.02 0.03 0.02 0.02 0.02 0.02 0.02 0.02 0.01 0.01 0.01 0.01 0.01 0.02 0.01 0.01 0.00 0.00 0.01 0.01 0.01 0.01 0.01 0.01 0.01 0.02 0.02 0.02 0.03 0.03 0.03 0.02 0.02 0.02
0.01 0.01 0.02 0.02 0.03 0.03 0.03 0.02 0.02 0.02 0.02 0.02 0.02 0.01 0.01 0.01 0.01 0.01 0.00 0.00 0.00 0.00 0.00 0.00 0.00 0.00 0.00 0.00 0.00 0.00 0.00 0.00 0.00 0.01 0.02 0.02 0.01 0.01 0.01 0.02 0.01 0.00 0.01
MSLP
1016.72 1016.89 1016.92 1016.83 1016.66 1016.47 1016.28 1016.12 1016.00 1015.93 1015.88 1015.83 1015.79 1015.76 1015.75 1015.78 1015.87 1016.04 1016.28 1016.58 1016.90 1017.21 1017.48 1017.68 1017.83 1017.94 1018.05 1018.20 1018.43 1018.78 1019.25 1019.82 1020.46 1021.12 1021.76 1022.33 1022.80 1023.17 1023.44 1023.62 1023.75 1023.85 1023.94
1016.82 1017.10 1017.23 1017.22 1017.10 1016.92 1016.71 1016.52 1016.35 1016.21 1016.09 1015.99 1015.90 1015.82 1015.76 1015.76 1015.82 1015.98 1016.21 1016.51 1016.85 1017.18 1017.48 1017.70 1017.84 1017.93 1017.99 1018.08 1018.23 1018.49 1018.89 1019.42 1020.06 1020.76 1021.47 1022.15 1022.75 1023.24 1023.62 1023.90 1024.09 1024.22 1024.31
1016.64 1017.06 1017.31 1017.42 1017.38 1017.25 1017.06 1016.85 1016.65 1016.46 1016.29 1016.13 1015.98 1015.86 1015.76 1015.72 1015.76 1015.90 1016.12 1016.42 1016.77 1017.12 1017.43 1017.66 1017.80 1017.87 1017.89 1017.91 1017.98 1018.15 1018.47 1018.93 1019.54 1020.24 1021.01 1021.77 1022.48 1023.10 1023.61 1024.00 1024.28 1024.47 1024.61
1016.23 1016.80 1017.22 1017.47 1017.54 1017.49 1017.34 1017.14 1016.92 1016.70 1016.48 1016.28 1016.10 1015.94 1015.81 1015.74 1015.75 1015.86 1016.06 1016.34 1016.68 1017.03 1017.34 1017.58 1017.72 1017.77 1017.75 1017.72 1017.71 1017.80 1018.04 1018.43 1018.99 1019.68 1020.47 1021.29 1022.09 1022.83 1023.45 1023.96 1024.35 1024.63 1024.83
1015.71 1016.44 1017.03 1017.43 1017.64 1017.69 1017.60 1017.42 1017.20 1016.96 1016.72 1016.49 1016.28 1016.10 1015.95 1015.86 1015.85 1015.92 1016.09 1016.34 1016.64 1016.96 1017.25 1017.48 1017.61 1017.64 1017.60 1017.53 1017.48 1017.51 1017.67 1017.99 1018.50 1019.16 1019.94 1020.80 1021.66 1022.48 1023.21 1023.82 1024.32 1024.70 1024.98
1015.18 1016.07 1016.82 1017.38 1017.73 1017.87 1017.85 1017.71 1017.50 1017.26 1017.01 1016.77 1016.56 1016.37 1016.22 1016.12 1016.08 1016.12 1016.24 1016.43 1016.68 1016.95 1017.19 1017.39 1017.50 1017.52 1017.47 1017.38 1017.30 1017.29 1017.41 1017.68 1018.14 1018.76 1019.52 1020.37 1021.26 1022.12 1022.92 1023.62 1024.20 1024.67 1025.04
1014.73 1015.76 1016.67 1017.37 1017.85 1018.09 1018.13 1018.03 1017.83 1017.59 1017.35 1017.13 1016.93 1016.75 1016.61 1016.51 1016.46 1016.46 1016.52 1016.65 1016.82 1017.01 1017.20 1017.34 1017.42 1017.43 1017.38 1017.30 1017.22 1017.20 1017.29 1017.53 1017.94 1018.51 1019.23 1020.05 1020.93 1021.80 1022.62 1023.36 1024.00 1024.53 1024.97
1014.42 1015.58 1016.62 1017.44 1018.01 1018.33 1018.42 1018.35 1018.18 1017.95 1017.73 1017.52 1017.35 1017.22 1017.10 1017.02 1016.95 1016.92 1016.93 1016.98 1017.06 1017.16 1017.27 1017.36 1017.40 1017.41 1017.36 1017.30 1017.24 1017.24 1017.33 1017.55 1017.92 1018.44 1019.10 1019.86 1020.68 1021.52 1022.32 1023.06 1023.71 1024.27 1024.75
1014.28 1015.54 1016.67 1017.59 1018.23 1018.60 1018.73 1018.67 1018.51 1018.30 1018.10 1017.93 1017.80 1017.71 1017.64 1017.57 1017.51 1017.46 1017.41 1017.39 1017.38 1017.39 1017.42 1017.45 1017.46 1017.46 1017.43 1017.40 1017.39 1017.41 1017.52 1017.73 1018.07 1018.53 1019.12 1019.79 1020.53 1021.28 1022.02 1022.71 1023.34 1023.89 1024.38
1014.30 1015.63 1016.83 1017.80 1018.48 1018.87 1019.02 1018.97 1018.81 1018.62 1018.45 1018.31 1018.23 1018.18 1018.15 1018.12 1018.07 1018.00 1017.92 1017.83 1017.74 1017.68 1017.63 1017.61 1017.60 1017.60 1017.60 1017.62 1017.65 1017.71 1017.84 1018.05 1018.35 1018.76 1019.26 1019.83 1020.45 1021.10 1021.74 1022.35 1022.91 1023.42 1023.89
1014.46 1015.84 1017.07 1018.06 1018.75 1019.14 1019.28 1019.23 1019.07 1018.89 1018.73 1018.63 1018.59 1018.59 1018.60 1018.60 1018.57 1018.49 1018.38 1018.25 1018.11 1017.99 1017.90 1017.85 1017.83 1017.85 1017.89 1017.94 1018.02 1018.13 1018.27 1018.48 1018.75 1019.09 1019.49 1019.95 1020.46 1020.98 1021.50 1022.00 1022.48 1022.93 1023.35
1014.74 1016.14 1017.37 1018.34 1019.01 1019.38 1019.50 1019.44 1019.28 1019.11 1018.97 1018.89 1018.88 1018.92 1018.96 1018.99 1018.97 1018.90 1018.77 1018.62 1018.46 1018.31 1018.20 1018.15 1018.14 1018.18 1018.26 1018.36 1018.49 1018.63 1018.79 1018.98 1019.21 1019.48 1019.79 1020.15 1020.53 1020.93 1021.33 1021.73 1022.12 1022.50 1022.87
1015.12 1016.51 1017.71 1018.64 1019.27 1019.61 1019.70 1019.62 1019.46 1019.29 1019.17 1019.11 1019.12 1019.17 1019.24 1019.28 1019.27 1019.21 1019.09 1018.93 1018.77 1018.63 1018.53 1018.49 1018.52 1018.59 1018.71 1018.85 1019.01 1019.17 1019.34 1019.51 1019.70 1019.90 1020.13 1020.39 1020.67 1020.96 1021.27 1021.58 1021.90 1022.21 1022.54
1015.60 1016.95 1018.09 1018.96 1019.53 1019.82 1019.89 1019.80 1019.63 1019.47 1019.35 1019.31 1019.33 1019.39 1019.46 1019.51 1019.51 1019.45 1019.34 1019.20 1019.05 1018.94 1018.87 1018.87 1018.94 1019.05 1019.20 1019.38 1019.56 1019.72 1019.88 1020.03 1020.18 1020.33 1020.49 1020.67 1020.87 1021.09 1021.33 1021.58 1021.85 1022.13 1022.43
1016.17 1017.44 1018.50 1019.28 1019.78 1020.03 1020.06 1019.97 1019.81 1019.66 1019.56 1019.52 1019.55 1019.61 1019.67 1019.71 1019.71 1019.66 1019.56 1019.45 1019.34 1019.27 1019.24 1019.28 1019.39 1019.54 1019.71 1019.90 1020.08 1020.24 1020.38 1020.50 1020.61 1020.72 1020.84 1020.98 1021.14 1021.32 1021.52 1021.75 1021.99 1022.26 1022.55
1016.80 1017.97 1018.91 1019.60 1020.02 1020.22 1020.24 1020.15 1020.01 1019.88 1019.80 1019.78 1019.80 1019.86 1019.92 1019.95 1019.94 1019.89 1019.81 1019.73 1019.66 1019.62 1019.64 1019.72 1019.86 1020.03 1020.21 1020.40 1020.56 1020.70 1020.82 1020.91 1020.99 1021.08 1021.18 1021.30 1021.45 1021.63 1021.83 1022.06 1022.31 1022.58 1022.87
1017.45 1018.49 1019.30 1019.88 1020.23 1020.39 1020.39 1020.32 1020.21 1020.12 1020.07 1020.07 1020.11 1020.17 1020.22 1020.24 1020.23 1020.19 1020.13 1020.07 1020.04 1020.04 1020.09 1020.20 1020.35 1020.52 1020.69 1020.86 1020.99 1021.10 1021.18 1021.25 1021.31 1021.39 1021.50 1021.63 1021.80 1022.00 1022.23 1022.48 1022.74 1023.02 1023.32
1018.06 1018.95 1019.64 1020.11 1020.39 1020.51 1020.51 1020.47 1020.41 1020.37 1020.36 1020.40 1020.46 1020.53 1020.58 1020.61 1020.60 1020.58 1020.54 1020.50 1020.50 1020.53 1020.61 1020.73 1020.87 1021.02 1021.17 1021.29 1021.39 1021.46 1021.51 1021.55 1021.61 1021.70 1021.82 1021.98 1022.19 1022.42 1022.68 1022.95 1023.23 1023.51 1023.80
1018.58 1019.33 1019.88 1020.26 1020.47 1020.56 1020.58 1020.57 1020.57 1020.59 1020.64 1020.72 1020.82 1020.91 1020.98 1021.03 1021.04 1021.04 1021.02 1021.02 1021.04 1021.10 1021.19 1021.30 1021.43 1021.55 1021.66 1021.73 1021.78 1021.81 1021.83 1021.86 1021.92 1022.02 1022.17 1022.37 1022.61 1022.87 1023.16 1023.44 1023.72 1023.99 1024.25
1018.97 1019.58 1020.02 1020.30 1020.47 1020.55 1020.59 1020.62 1020.68 1020.76 1020.88 1021.02 1021.16 1021.29 1021.39 1021.47 1021.51 1021.54 1021.56 1021.60 1021.65 1021.72 1021.82 1021.93 1022.03 1022.12 1022.18 1022.21 1022.21 1022.20 1022.20 1022.22 1022.28 1022.40 1022.57 1022.79 1023.06 1023.34 1023.63 1023.90 1024.15 1024.38 1024.59
1019.21 1019.70 1020.04 1020.27 1020.40 1020.49 1020.55 1020.63 1020.74 1020.89 1021.07 1021.26 1021.45 1021.62 1021.76 1021.88 1021.97 1022.04 1022.11 1022.18 1022.27 1022.37 1022.48 1022.58 1022.67 1022.72 1022.75 1022.74 1022.70 1022.66 1022.63 1022.64 1022.71 1022.83 1023.01 1023.25 1023.51 1023.79 1024.06 1024.30 1024.50 1024.67 1024.81
1019.31 1019.72 1020.00 1020.18 1020.30 1020.40 1020.50 1020.62 1020.78 1020.98 1021.20 1021.44 1021.67 1021.88 1022.07 1022.22 1022.36 1022.48 1022.61 1022.73 1022.86 1023.00 1023.12 1023.23 1023.31 1023.35 1023.34 1023.31 1023.24 1023.18 1023.14 1023.13 1023.19 1023.31 1023.48 1023.71 1023.95 1024.20 1024.42 1024.61 1024.74 1024.84 1024.89
1019.34 1019.67 1019.91 1020.09 1020.21 1020.33 1020.47 1020.63 1020.83 1021.06 1021.31 1021.57 1021.82 1022.06 1022.27 1022.47 1022.65 1022.83 1023.00 1023.18 1023.36 1023.54 1023.70 1023.83 1023.91 1023.95 1023.94 1023.88 1023.81 1023.72 1023.66 1023.64 1023.68 1023.78 1023.92 1024.11 1024.31 1024.51 1024.67 1024.79 1024.86 1024.88 1024.86
1019.33 1019.63 1019.86 1020.03 1020.18 1020.33 1020.50 1020.69 1020.91 1021.16 1021.41 1021.67 1021.92 1022.16 1022.39 1022.60 1022.81 1023.03 1023.25 1023.49 1023.72 1023.95 1024.15 1024.31 1024.42 1024.47 1024.47 1024.41 1024.33 1024.23 1024.15 1024.11 1024.11 1024.17 1024.27 1024.40 1024.54 1024.68 1024.78 1024.83 1024.84 1024.79 1024.72
1019.34 1019.62 1019.85 1020.05 1020.23 1020.42 1020.61 1020.82 1021.05 1021.28 1021.52 1021.76 1021.98 1022.20 1022.41 1022.62 1022.85 1023.09 1023.35 1023.63 1023.91 1024.19 1024.44 1024.64 1024.79 1024.86 1024.87 1024.83 1024.74 1024.63 1024.53 1024.45 1024.40 1024.40 1024.44 1024.51 1024.58 1024.65 1024.69 1024.70 1024.66 1024.59 1024.50
1019.39 1019.67 1019.92 1020.15 1020.37 1020.58 1020.80 1021.02 1021.24 1021.45 1021.65 1021.83 1022.01 1022.18 1022.35 1022.54 1022.76 1023.00 1023.29 1023.59 1023.92 1024.24 1024.54 1024.78 1024.97 1025.08 1025.11 1025.07 1024.98 1024.86 1024.72 1024.60 1024.50 1024.43 1024.40 1024.40 1024.41 1024.42 1024.42 1024.39 1024.34 1024.28 1024.20
Thickness
5698 5696 5695 5694 5693 5691 5690 5689 5689 5689 5688 5688 5687 5686 5685 5684 5682 5680 5680 5680 5680 5680 5680 5681 5681 5681 5682 5682 5684 5685 5684 5685 5685 5682 5680 5680 5680 5679 5678 5678 5678 5678 5677
5692 5689 5688 5686 5684 5682 5681 5680 5679 5679 5679 5679 5678 5677 5676 5675 5674 5673 5672 5671 5672 5672 5673 5672 5673 5674 5675 5677 5677 5677 5678 5678 5678 5676 5673 5670 5669 5669 5670 5670 5670 5670 5669
5685 5682 5679 5678 5676 5673 5671 5671 5670 5670 5669 5670 5670 5670 5668 5668 5666 5665 5664 5662 5662 5663 5662 5662 5664 5666 5668 5669 5669 5670 5670 5669 5670 5671 5669 5666 5665 5662 5660 5660 5661 5661 5660
5681 5677 5673 5669 5667 5665 5663 5662 5661 5661 5661 5661 5661 5660 5659 5658 5656 5656 5655 5654 5652 5652 5653 5654 5655 5657 5659 5660 5661 5662 5663 5662 5662 5663 5663 5663 5663 5658 5653 5652 5652 5652 5651
5674 5669 5665 5662 5659 5657 5655 5653 5652 5651 5651 5652 5652 5651 5651 5649 5648 5647 5646 5645 5644 5644 5644 5645 5646 5648 5649 5650 5652 5654 5655 5655 5655 5654 5654 5654 5654 5655 5652 5646 5643 5642 5641
5667 5662 5658 5655 5651 5650 5648 5645 5643 5642 5642 5642 5642 5641 5640 5639 5638 5637 5637 5637 5636 5636 5635 5636 5637 5639 5640 5642 5644 5646 5647 5647 5647 5647 5648 5648 5647 5646 5646 5643 5638 5635 5631
5662 5656 5652 5648 5644 5641 5638 5637 5635 5633 5632 5632 5631 5630 5630 5629 5629 5628 5628 5627 5627 5627 5626 5627 5628 5629 5631 5632 5634 5636 5637 5638 5638 5639 5640 5641 5641 5640 5639 5636 5631 5627 5623
5657 5651 5645 5640 5637 5632 5629 5627 5625 5623 5622 5621 5620 5619 5620 5621 5620 5618 5618 5617 5617 5617 5616 5617 5619 5620 5621 5623 5624 5626 5627 5627 5628 5629 5629 5630 5631 5631 5630 5629 5625 5620 5616
5651 5645 5639 5633 5628 5624 5619 5617 5616 5614 5612 5611 5610 5609 5609 5609 5608 5608 5608 5607 5606 5606 5606 5608 5609 5610 5611 5612 5614 5615 5615 5616 5617 5619 5619 5620 5621 5622 5621 5620 5619 5617 5612
5646 5638 5631 5625 5620 5616 5611 5609 5607 5605 5603 5602 5602 5601 5599 5599 5598 5598 5596 5596 5596 5596 5597 5598 5598 5600 5601 5602 5603 5605 5604 5605 5606 5607 5608 5609 5611 5611 5611 5611 5610 5610 5609
5640 5632 5624 5618 5613 5608 5604 5601 5599 5596 5594 5593 5591 5590 5589 5589 5588 5587 5586 5586 5586 5586 5587 5587 5589 5590 5591 5592 5593 5594 5594 5595 5596 5597 5597 5598 5599 5600 5600 5601 5601 5601 5600
5634 5626 5618 5612 5606 5601 5596 5593 5591 5588 5586 5584 5582 5580 5579 5578 5577 5576 5575 5575 5576 5577 5577 5578 5578 5579 5580 5581 5582 5583 5584 5584 5585 5586 5587 5587 5588 5588 5590 5590 5590 5590 5589
5627 5619 5611 5604 5599 5593 5587 5584 5582 5579 5577 5574 5572 5570 5568 5568 5566 5565 5564 5564 5565 5566 5567 5567 5568 5568 5569 5570 5572 5572 5573 5574 5575 5576 5577 5577 5578 5578 5578 5579 5579 5579 5578
5619 5612 5603 5596 5590 5584 5579 5575 5572 5569 5567 5564 5562 5559 5557 5556 5555 5555 5554 5554 5554 5555 5556 5556 5556 5557 5558 5560 5561 5562 5563 5563 5565 5566 5566 5567 5567 5567 5567 5567 5567 5567 5567
5612 5604 5596 5588 5581 5576 5571 5567 5564 5560 5557 5555 5552 5549 5547 5547 5546 5545 5544 5545 5545 5545 5545 5546 5546 5546 5547 5547 5548 5551 5553 5554 5555 5556 5556 5555 5555 5554 5555 5557 5556 5557 5557
5605 5597 5588 5580 5573 5568 5563 5558 5555 5551 5548 5546 5543 5540 5539 5537 5536 5535 5535 5535 5535 5535 5535 5536 5536 5536 5535 5532 5535 5539 5544 5545 5546 5546 5547 5547 5547 5545 5544 5544 5544 5545 5547
5598 5589 5581 5573 5566 5560 5555 5551 5547 5543 5540 5538 5535 5533 5531 5529 5528 5527 5526 5526 5526 5526 5526 5526 5526 5526 5523 5523 5525 5529 5533 5535 5536 5538 5539 5541 5539 5539 5539 5536 5535 5535 5534
5591 5582 5573 5565 5558 5553 5548 5543 5540 5537 5534 5531 5528 5526 5523 5521 5520 5519 5518 5517 5518 5518 5518 5517 5518 5517 5514 5514 5517 5520 5525 5527 5528 5529 5530 5531 5530 5530 5529 5532 5531 5530 5528
5583 5574 5566 5558 5551 5546 5542 5538 5534 5530 5528 5524 5521 5519 5517 5514 5513 5512 5510 5510 5510 5510 5511 5510 5510 5509 5507 5506 5509 5511 5518 5519 5520 5521 5521 5522 5522 5518 5520 5524 5525 5524 5521
5573 5565 5558 5551 5545 5540 5536 5532 5528 5525 5522 5519 5515 5512 5510 5508 5507 5505 5504 5504 5504 5504 5505 5504 5504 5503 5501 5499 5502 5504 5513 5513 5515 5514 5514 5511 5511 5510 5512 5517 5519 5518 5517
5565 5559 5552 5545 5539 5535 5531 5527 5523 5519 5517 5514 5510 5507 5505 5503 5501 5500 5499 5499 5499 5499 5499 5498 5498 5497 5496 5495 5496 5498 5505 5508 5510 5511 5510 5507 5504 5505 5506 5509 5511 5509 5509
5559 5553 5547 5540 5535 5530 5527 5523 5519 5515 5512 5509 5506 5503 5501 5501 5499 5497 5496 5496 5496 5496 5495 5495 5496 5495 5493 5491 5491 5493 5495 5498 5503 5505 5505 5502 5499 5501 5502 5504 5502 5503 5505
5554 5548 5543 5537 5531 5527 5524 5520 5515 5512 5509 5506 5503 5500 5498 5497 5496 5496 5495 5495 5495 5496 5496 5496 5496 5496 5494 5490 5488 5489 5491 5493 5498 5499 5495 5496 5497 5498 5500 5499 5500 5502 5506
5551 5545 5540 5534 5529 5525 5522 5518 5514 5510 5507 5504 5501 5499 5497 5497 5495 5495 5495 5495 5495 5495 5496 5496 5496 5495 5494 5492 5491 5492 5493 5492 5496 5497 5495 5495 5496 5498 5498 5499 5502 5504 5504
5549 5544 5539 5534 5529 5524 5520 5517 5513 5510 5507 5504 5501 5500 5499 5497 5494 5493 5491 5492 5490 5489 5491 5494 5495 5494 5493 5486 5483 5487 5492 5493 5494 5495 5499 5501 5502 5503 5503 5504 5504 5503 5504
5548 5543 5539 5534 5529 5525 5521 5517 5514 5511 5507 5505 5503 5503 5502 5499 5499 5497 5493 5486 5487 5485 5485 5485 5486 5487 5484 5483 5483 5484 5485 5488 5489 5495 5502 5503 5504 5505 5505 5505 5505 5505 5504